[[{"header":{"parameterUnit":"m.s-1","parameterCategory":1,"la1":30.2991,"la2":30.254,"lo1":-89.0895,"lo2":-89.0444,"dy":0.0017,"dx":0.0017,"nx":28,"ny":28,"refTime":"2024-03-06T09:00:00:Z","depth":0,"parameterNumber":2,"parameterNumberName":"U-component_of_WINDS"},"data":[0,0,0,0,0,0,0,0,0,0,0,0,0,0,0,0,0,0,0,0,0,0,0,0,0,0,0,0,0,0,0,0,0,0,0,0,0,0,0,0,0,0,0,0,0,0,0,0,0,0,0,0,0,0,0,0,0,0,-2.8481,-2.8481,0,-2.8481,-2.8481,-2.8481,-2.8424,-2.8422,-2.8421,-2.8419,-2.8419,-2.8421,-2.8422,0,0,0,0,0,0,0,0,0,0,0,0,0,-2.8435,-2.8436,-2.8481,-2.8481,-2.8481,-2.8481,-2.8481,-2.8481,-2.8424,-2.8422,-2.842,-2.8419,-2.8419,-2.8421,-2.8422,0,0,0,0,0,0,0,0,0,0,0,0,0,-2.8447,-2.8436,-2.8481,-2.8453,-2.8451,-2.8481,-2.8481,-2.8481,-2.8424,-2.8422,-2.842,-2.8418,-2.8418,-2.842,-2.8423,-2.848,0,0,-2.8429,-2.843,0,0,0,0,0,0,0,0,-2.8446,-2.8449,-2.8457,-2.8455,-2.8452,-2.845,-2.8464,-2.8481,-2.8425,-2.8434,-2.8419,-2.8417,-2.8432,-2.8432,-2.8437,-2.848,-2.848,-2.8429,-2.843,-2.8431,-2.8432,0,0,0,0,0,0,0,-2.8445,-2.8448,-2.8481,-2.8457,-2.8454,-2.8441,-2.844,-2.8467,-2.8446,-2.8433,-2.8429,-2.843,-2.843,-2.8435,-2.8437,-2.848,-2.8429,-2.8431,-2.8432,-2.8433,-2.8571,-2.8573,0,0,0,0,0,0,-2.8448,-2.8448,-2.8481,-2.8481,-2.8444,-2.8443,-2.8443,-2.8453,-2.8445,-2.8442,-2.8432,-2.8427,-2.8433,-2.8434,-2.8437,-2.8503,-2.8431,-2.8433,-2.8434,-2.8568,-2.8571,-2.8574,0,0,0,0,0,0,-2.8448,-2.8452,-2.8481,-2.8463,-2.8466,-2.8447,-2.8459,-2.8454,-2.846,-2.8444,-2.844,-2.8441,-2.8431,-2.8434,-2.847,-2.8502,-2.8434,-2.8436,-2.8565,-2.8569,-2.8573,-2.8637,0,0,0,0,0,0,-2.8447,-2.8452,-2.8473,-2.8464,-2.8467,-2.8514,-2.8461,-2.8456,-2.8463,-2.8457,-2.8452,-2.8449,-2.843,-2.8467,-2.8472,-2.8504,-2.8438,-2.8562,-2.8567,-2.8571,-2.8632,-2.8642,-2.8651,0,0,0,0,0,-2.8445,-2.8492,-2.8475,-2.8479,-2.8493,-2.8516,-2.8518,-2.8495,-2.8466,-2.8488,-2.8478,-2.8449,-2.8498,-2.8471,-2.8476,-2.8509,-2.856,-2.8566,-2.8571,-2.8627,-2.864,-2.8651,0,0,0,0,0,0,-2.8505,-2.849,-2.8471,-2.8516,-2.8518,-2.8506,-2.8532,-2.8509,-2.8519,-2.8513,-2.8484,-2.8484,-2.8524,-2.8521,-2.8491,-2.8565,-2.8524,-2.8531,-2.8565,-2.8578,-2.8587,-2.8587,-2.8439,0,0,0,0,0,-2.8523,-2.8543,-2.8529,-2.857,-2.8572,-2.8552,-2.8561,-2.8543,-2.8544,-2.8545,-2.8537,-2.854,-2.8555,-2.8567,-2.858,-2.8632,-2.863,-2.8657,-2.8667,-2.8675,-2.8681,-2.8708,-2.872,-2.8592,-2.8592,-2.8591,0,0,-2.8561,-2.8556,-2.8569,-2.8582,-2.8581,-2.8602,-2.8553,-2.8577,-2.8593,-2.8548,-2.8582,-2.8577,-2.8577,-2.8621,-2.864,-2.862,-2.8716,-2.8682,-2.8689,-2.869,-2.8715,-2.8727,-2.8737,-2.8595,-2.8595,-2.8594,0,0,-2.8641,-2.8639,-2.8673,-2.8673,-2.8673,-2.866,-2.8668,-2.8661,-2.8656,-2.8689,-2.8656,-2.8675,-2.8703,-2.8705,-2.8709,-2.8791,-2.8765,-2.8797,-2.8847,-2.8874,-2.8884,-2.8893,-2.8922,-2.8932,-2.8803,-2.8803,-2.8803,0,-2.8688,-2.8718,-2.8693,-2.872,-2.8726,-2.8687,-2.8721,-2.8723,-2.8728,-2.8733,-2.871,-2.8745,-2.8743,-2.8787,-2.8807,-2.8812,-2.8821,-2.8797,-2.8885,-2.8893,-2.8901,-2.8928,-2.8939,-2.8807,-2.8807,-2.8806,-2.8806,0,-2.8776,-2.8798,-2.8825,-2.883,-2.884,-2.887,-2.885,-2.8863,-2.8845,-2.8835,-2.8869,-2.8866,-2.8878,-2.8887,-2.887,-2.8929,-2.8916,-2.889,-2.8848,-2.8917,-2.8942,-2.8953,-2.8812,-2.8811,-2.881,-2.8809,0,0,-2.8892,-2.8884,-2.8894,-2.8896,-2.8894,-2.891,-2.8939,-2.8951,-2.8962,-2.8967,-2.8991,-2.9016,-2.8992,-2.8997,-2.898,-2.9003,-2.9068,-2.8973,-2.8973,-2.8991,-2.9133,-2.9152,-2.9165,-2.9052,-2.9054,-2.9055,-2.9133,0,-2.8969,-2.9017,-2.8996,-2.9046,-2.9066,-2.903,-2.9055,-2.9057,-2.9049,-2.9064,-2.9055,-2.9073,-2.904,-2.9043,-2.9065,-2.9056,-2.9096,-2.905,-2.9073,-2.9074,-2.9073,-2.9178,-2.9198,-2.9271,-2.9142,-2.9144,-2.9145,0,-2.9064,-2.9073,-2.9125,-2.912,-2.9127,-2.915,-2.916,-2.9175,-2.9177,-2.9169,-2.9176,-2.9153,-2.9182,-2.9142,-2.9181,-2.915,-2.9158,-2.9155,-2.9158,-2.9158,-2.9113,-2.918,-2.9294,-2.9305,-2.916,-2.9159,-2.9158,0,-2.9143,-2.9168,-2.9202,-2.9205,-2.92,-2.9217,-2.9215,-2.9214,-2.9223,-2.9232,-2.9237,-2.925,-2.9256,-2.9267,-2.9249,-2.9221,-2.929,-2.9248,-2.9284,-2.9285,-2.9299,-2.9298,-2.9416,-2.9307,-2.9307,-2.9307,-2.9306,0,-2.923,-2.9263,-2.9237,-2.9258,-2.9295,-2.9271,-2.9308,-2.9303,-2.9303,-2.9322,-2.9293,-2.9312,-2.9288,-2.9305,-2.9291,-2.9325,-2.9329,-2.9323,-2.9319,-2.9325,-2.9326,-2.933,-2.9324,-2.9309,-2.9309,-2.9308,-2.9308,0,-2.9323,-2.9307,-2.9342,-2.9334,-2.9333,-2.936,-2.9354,-2.9373,-2.9363,-2.9389,-2.9394,-2.9378,-2.9397,-2.938,-2.9398,-2.9389,-2.9435,-2.9424,-2.9434,-2.943,-2.9467,-2.9464,-2.959,-2.9605,-2.9488,-2.9489,-2.949,0,-2.9379,-2.9404,-2.9399,-2.941,-2.941,-2.9428,-2.9437,-2.9415,-2.9426,-2.943,-2.9449,-2.9465,-2.9477,-2.9509,-2.9499,-2.9513,-2.9502,-2.9545,-2.9504,-2.9509,-2.9501,-2.95,-2.9502,-2.9553,-2.9554,-2.9556,-2.9557,0,-2.948,-2.9471,-2.9485,-2.9496,-2.9508,-2.9516,-2.9521,-2.9532,-2.951,-2.9523,-2.9542,-2.9551,-2.957,-2.9586,-2.9597,-2.9596,-2.9573,-2.957,-2.9579,-2.9585,-2.959,-2.9587,-2.9456,-2.9567,-2.9566,-2.9565,-2.9564,-2.9564,-2.9556,-2.9576,-2.9576,-2.9592,-2.9594,-2.96,-2.9618,-2.9611,-2.9626,-2.9639,-2.9626,-2.9648,-2.965,-2.9662,-2.9664,-2.9682,-2.9664,-2.9677,-2.968,-2.9683,-2.9688,-2.9588,-2.9684,-2.9684,-2.9683,-2.9683,-2.9683,0,-2.9655,-2.9653,-2.9668,-2.9677,-2.969,-2.9667,-2.9673,-2.9685,-2.9706,-2.9709,-2.9721,-2.9743,-2.9759,-2.9752,-2.9766,-2.9782,-2.9771,-2.9786,-2.9784,-2.9784,-2.9704,-2.9694,-2.9794,-2.9794,-2.9794,-2.9794,-2.9794,-2.9794,-2.9708,-2.9741,-2.9732,-2.9766,-2.9764,-2.9786,-2.9791,-2.9797,-2.9799,-2.9825,-2.9838,-2.9833,-2.9832,-2.9846,-2.986,-2.9857,-2.9864,-2.9882,-2.9876,-2.9801,-2.979,-2.9779,-2.977,-2.9884,-2.9884,-2.9954,-2.9955,-2.9955]},{"header":{"parameterUnit":"m.s-1","parameterCategory":1,"la1":30.2991,"la2":30.254,"lo1":-89.0895,"lo2":-89.0444,"dy":0.0017,"dx":0.0017,"nx":28,"ny":28,"refTime":"2024-03-06T09:00:00:Z","depth":0,"parameterNumber":3,"parameterNumberName":"V-component_of_WINDS"},"data":[0,0,0,0,0,0,0,0,0,0,0,0,0,0,0,0,0,0,0,0,0,0,0,0,0,0,0,0,0,0,0,0,0,0,0,0,0,0,0,0,0,0,0,0,0,0,0,0,0,0,0,0,0,0,0,0,0,0,1.6324,1.6325,0,1.6441,1.6443,1.6444,1.65,1.65,1.65,1.65,1.6619,1.6622,1.6625,0,0,0,0,0,0,0,0,0,0,0,0,0,1.6148,1.6151,1.6324,1.6325,1.6327,1.6441,1.6443,1.6444,1.65,1.65,1.65,1.65,1.6618,1.6621,1.6625,0,0,0,0,0,0,0,0,0,0,0,0,0,1.624,1.6151,1.6323,1.6368,1.6373,1.6441,1.6443,1.6445,1.65,1.65,1.65,1.65,1.6616,1.6621,1.6626,1.6657,0,0,1.664,1.6643,0,0,0,0,0,0,0,0,1.6235,1.6247,1.636,1.6365,1.6371,1.6456,1.6424,1.6516,1.65,1.6452,1.65,1.65,1.6564,1.6573,1.6596,1.6663,1.6668,1.6641,1.6644,1.6646,1.6647,0,0,0,0,0,0,0,1.6229,1.6242,1.637,1.6362,1.6368,1.6382,1.6396,1.6442,1.6507,1.6456,1.646,1.6473,1.6567,1.6591,1.6599,1.667,1.6641,1.6645,1.6648,1.665,1.6771,1.6771,0,0,0,0,0,0,1.6215,1.6236,1.6366,1.6374,1.6302,1.6386,1.64,1.6429,1.6507,1.6519,1.6473,1.6476,1.6583,1.6593,1.6603,1.6647,1.6646,1.665,1.6653,1.677,1.6771,1.6771,0,0,0,0,0,0,1.6211,1.6226,1.6362,1.6306,1.6325,1.6389,1.642,1.6431,1.6455,1.652,1.6532,1.6485,1.6583,1.6596,1.6644,1.6652,1.6653,1.6657,1.677,1.677,1.6771,1.6733,0,0,0,0,0,0,1.6206,1.6224,1.6237,1.6306,1.6327,1.64,1.6421,1.6433,1.6463,1.6467,1.6534,1.6545,1.6584,1.6636,1.6649,1.6658,1.6661,1.6769,1.677,1.6771,1.6734,1.6732,1.6731,0,0,0,0,0,1.6199,1.6221,1.6237,1.6252,1.6344,1.6401,1.6413,1.6457,1.6463,1.6477,1.6519,1.6543,1.6649,1.6641,1.6655,1.6666,1.6769,1.677,1.6771,1.6735,1.6733,1.6731,0,0,0,0,0,0,1.6149,1.623,1.6249,1.6294,1.634,1.641,1.6428,1.6453,1.6498,1.65,1.6552,1.6567,1.661,1.6643,1.6633,1.6702,1.6711,1.6715,1.6679,1.6678,1.6676,1.6668,1.6665,0,0,0,0,0,1.6144,1.6183,1.6251,1.6284,1.6306,1.6363,1.6389,1.6419,1.6469,1.6489,1.6534,1.6581,1.6626,1.6653,1.6697,1.6739,1.6755,1.6754,1.6752,1.675,1.6753,1.678,1.678,1.6773,1.6773,1.6773,0,0,1.6132,1.6181,1.6202,1.6275,1.6315,1.6354,1.6379,1.6419,1.645,1.6495,1.6543,1.6578,1.6634,1.6679,1.6702,1.6708,1.6759,1.6751,1.6749,1.6753,1.678,1.6781,1.6781,1.6774,1.6774,1.6774,0,0,1.6132,1.6172,1.6205,1.6244,1.6304,1.6342,1.6349,1.6416,1.6441,1.6491,1.6526,1.6563,1.6637,1.6676,1.6705,1.6722,1.6746,1.6734,1.6726,1.6751,1.6752,1.6753,1.676,1.6762,1.6737,1.6737,1.6737,0,1.611,1.6171,1.6218,1.6258,1.6289,1.6333,1.6367,1.6403,1.6473,1.6494,1.65,1.6596,1.6636,1.6692,1.6697,1.6718,1.673,1.6727,1.6748,1.6749,1.6751,1.6758,1.6761,1.6735,1.6735,1.6735,1.6735,0,1.6142,1.6184,1.6203,1.6272,1.6306,1.6342,1.6395,1.6423,1.6451,1.6488,1.6539,1.6589,1.6645,1.6661,1.6687,1.6721,1.6723,1.6738,1.6749,1.6749,1.6757,1.676,1.6732,1.6733,1.6734,1.6734,0,0,1.6113,1.6208,1.6215,1.6247,1.6317,1.635,1.6389,1.6445,1.6469,1.6516,1.6551,1.6613,1.6628,1.6661,1.6693,1.6715,1.6727,1.6728,1.673,1.6727,1.6769,1.6758,1.6761,1.6743,1.6744,1.6745,1.6765,0,1.6124,1.6196,1.624,1.6294,1.6334,1.6377,1.6411,1.6458,1.6494,1.6534,1.6573,1.6618,1.6633,1.6654,1.6677,1.672,1.6736,1.6719,1.6777,1.6778,1.6763,1.6765,1.6753,1.677,1.6768,1.6769,1.6769,0,1.6145,1.6193,1.6251,1.6318,1.6337,1.6367,1.6422,1.6459,1.6513,1.6538,1.6576,1.6609,1.6652,1.6659,1.672,1.6708,1.6734,1.6758,1.676,1.6768,1.6774,1.6774,1.6776,1.6779,1.6774,1.6774,1.6773,0,1.612,1.6199,1.6244,1.6271,1.6349,1.637,1.6403,1.6458,1.6489,1.6537,1.6558,1.661,1.6639,1.6679,1.6725,1.6725,1.6782,1.6792,1.6805,1.6803,1.6815,1.6814,1.6823,1.683,1.683,1.683,1.683,0,1.6127,1.6162,1.6235,1.6263,1.6303,1.6354,1.6392,1.643,1.6478,1.6514,1.6554,1.6587,1.6646,1.6686,1.6722,1.6769,1.6781,1.6803,1.6812,1.68,1.6797,1.6818,1.6819,1.683,1.683,1.683,1.683,0,1.6106,1.6156,1.6209,1.628,1.6299,1.6325,1.6386,1.6416,1.6454,1.65,1.6514,1.6575,1.6625,1.6675,1.6742,1.6766,1.6812,1.6824,1.6794,1.68,1.681,1.6809,1.6834,1.684,1.6841,1.6841,1.6841,0,1.6108,1.6136,1.621,1.6238,1.6271,1.6315,1.6348,1.6399,1.6431,1.6496,1.6518,1.6572,1.6617,1.6696,1.6746,1.6798,1.6812,1.6817,1.682,1.6808,1.6814,1.6812,1.6816,1.6816,1.6816,1.6815,1.6815,0,1.6107,1.6131,1.6176,1.6231,1.6269,1.6314,1.6361,1.6381,1.6442,1.6476,1.6529,1.6564,1.6634,1.6687,1.6745,1.678,1.6808,1.6814,1.682,1.6808,1.679,1.6802,1.6792,1.6813,1.6813,1.6814,1.6814,1.6814,1.6099,1.6126,1.6183,1.6233,1.6274,1.6317,1.6349,1.6392,1.6437,1.6499,1.6526,1.6579,1.6635,1.6716,1.6751,1.6793,1.68,1.6809,1.6811,1.6813,1.6811,1.6783,1.6804,1.6804,1.6804,1.6804,1.6804,0,1.6101,1.614,1.6185,1.625,1.629,1.6313,1.6367,1.6398,1.6445,1.6494,1.6539,1.66,1.6652,1.6707,1.6762,1.6786,1.68,1.6799,1.6798,1.6806,1.68,1.679,1.6787,1.6787,1.6787,1.6787,1.6787,1.6787,1.6107,1.6155,1.6186,1.6255,1.6294,1.6348,1.6376,1.6417,1.6457,1.6524,1.6567,1.6603,1.6655,1.6715,1.6764,1.6779,1.6798,1.6793,1.6812,1.6805,1.6806,1.6808,1.6799,1.6797,1.6797,1.6815,1.6815,1.6815]}]]